Find STARLINK-37962

NORAD ID: 799501040 Int'l Des: 2026-146S Constellation: starlink operational

Current View

Loading 3D Globe...

About STARLINK-37962

STARLINK-37962 (NORAD 799501040) is a starlink constellation satellite launched Jun 12, 2026

About STARLINK-37962

Description loading...

Upcoming Passes

Passes for default location (London). Set your location on the main map for personalized predictions.

Altitude History

Loading altitude history...

Two-Line Element Set

1 99999C 2026146S 26176.31159721 .00854080 00000-0 130690-3 0 1761
2 99999 97.2854 21.9653 0011068 277.6134 83.2890 16.03824250 16
Epoch: Jun 25, 2026 • Age: 9 hours